星链-5818 (STARLINK-5818 )

导读 | 豆包AI

STARLINK-5818是美国太空探索技术公司星链星座的一员,于2023年3月3日发射升空。作为星链互联网星座的卫星,它主要为全球尤其是偏远地区提供高速宽带互联网服务。该卫星延续星链设计,依托大规模星座组网,助力实现全球无缝网络覆盖,推动卫星互联网应用落地,进一步完善了星链星座的部署进程。

基本信息
目录编号:
55785
目录名称:
STARLINK-5818
国际标识:
2023-028AW
轨道中心:
EARTH
卫星名称:
星链-5818
卫星全名:
星链-5818 (STARLINK-5818 )
卫星状态:
在轨 (已飞行1154 天)
发射日期:
2023-03-03 UTC
国别 :
美国 (US)
星等 :
--
轨道信息
数据来源 国际轨道数据
星历时间: 2026-04-30T12:05:11+0800
7小时前
查看轨道信息
半长轴: 6950.196km
偏心率: 0.0002401
轨道倾角: 70.001°
近地点辐角 280.868°
升交点赤经 74.809°
平近点角 79.221°
近地点: 570.39km
远地点: 573.728km
周期: 96.107分钟
每日圈数: 14.983293
详细信息
固有亮度:
5
最大亮度:
2.5
卫星平台:
Starlink v1.5
覆盖范围:
全球
运营商:
太空探索技术公司
运营商所在国:
美国
制造商(研发单位):
太空探索技术公司
制造商所在国:
美国
使用方式:
暂无
卫星简介
星链(Starlink)计划是由太空探索技术公司(SpaceX)提出的一个巨型低轨卫星互联网星座项目,计划在2019年至2024年间在太空搭建由约1.2万颗卫星组成的“星链”网络,其中1584颗将部署在地球上空550千米处的近地轨道,并从2020年开始工作。该卫星仍在工作。
2D轨道图
3D轨道图
轨道高度分析图
轨道倾角分析图
轨道综合分析图
查看轨道综合分析图